INTEGRAL

Last updated on Wed Nov 20 2024 00:03:23 GMT+0000 (Coordinated Universal Time)

1 27540U 02048A 24324.26533477 -.00000039 00000+0 00000+0 0 9995 2 27540 90.4062 13.7191 8617545 277.5202 141.3752 0.37578400 24478
UTC large
Height (km)
Speed (km/s)
/
Latitude / Longitude
Inclination (degrees)
Orbital Period (minutes)
Azimuth
Elevation
Range (km)
Doppler Factor

Next 0 passes for location: London (51.5072 / 0.1276)

Sorry there are no passes over London.